(233045) = 2005 GE37

Discovered at Catalina on 2005-04-02 by CSS.

Orbit

Orbit type: Main Belt

Note: WebGL enabled browser required.

epoch2023-09-13.0
epoch JD2460200.5
perihelion date2022-04-15.30832
perihelion JD2459684.80832
argument of perihelion (°)76.86702
ascending node (°)142.79547
inclination (°)18.15107
eccentricity0.1302700
perihelion distance (AU)2.7485887
Tisserand w.r.t. Jupiter3.1
ΔV w.r.t. Earth (km/sec)11.8
semimajor axis (AU)3.1602780
mean anomaly (°)90.47030
mean daily motion (°/day)0.17543490
aphelion distance (AU)3.572
period (years)5.62
P-vector [x]-0.74051556
P-vector [y]-0.67085915
P-vector [z]0.03980824
Q-vector [x]0.64510058
Q-vector [y]-0.72618693
Q-vector [z]-0.23769263
absolute magnitude14.76
phase slope0.15
uncertainty0
referenceMPEC 2024-A48
observations used933
oppositions16
arc length (days)8061
first opposition used2001
last opposition used2023
residual rms (arc-secs)0.73
perturbers coarse indicatorM-v
perturbers precise indicator003Ek
first observation date used2001-10-15.0
last observation date used2023-11-10.0
computer nameMPCLINUX
JD of orbit computation2456639.647780
perihelion JD uncertainty (days)2.5833E-04
argument of perihelion uncertainty (°)4.4734E-05
ascending node uncertainty (°)1.8530E-05
inclination uncertainty (°)7.7043E-06
eccentricity uncertainty 5.3595E-08
perihelion distance uncertainty (AU)1.8316E-07
Minimum Orbit Intersection Distances (in AU)
for orbit epoch: 2460200.5, reference: E2024-A48
Mercury2.32541
Venus2.05986
Earth1.81255
Mars1.22216
Jupiter1.65268
Saturn5.78149
Uranus15.4689
Neptune26.4094

Observations

946 total observations over interval: 2001 10 15.16016 – 2023 11 10.115615
These data are available for download (format description).

Date (UT) J2000 RA J2000 Dec Magn Location Ref
2001 10 15.16016 23 31 53.27 -17 51 31.0 20.0   644 – Palomar Mountain/NEAT MPS 175134
2001 10 15.17070 23 31 52.97 -17 51 32.9 20.2   644 – Palomar Mountain/NEAT MPS 175134
2001 10 15.18124 23 31 52.69 -17 51 35.2 20.8   644 – Palomar Mountain/NEAT MPS 175134
2005 01 07.48331 13 47 08.90 +02 02 35.0 19.6 R 703 – Catalina Sky Survey MPS 131811
2005 01 07.48972 13 47 09.30 +02 02 34.2 19.9 R 703 – Catalina Sky Survey MPS 131811
2005 01 07.49609 13 47 09.68 +02 02 34.3 18.9 R 703 – Catalina Sky Survey MPS 131811
2005 01 07.50249 13 47 10.18 +02 02 33.1 19.1 R 703 – Catalina Sky Survey MPS 131811
2005 01 17.45634 13 57 55.45 +02 17 03.9 19.1 R 703 – Catalina Sky Survey MPS 175134
2005 01 17.46538 13 57 56.02 +02 17 06.7 19.5 R 703 – Catalina Sky Survey MPS 175134
2005 01 17.47440 13 57 56.47 +02 17 07.1 19.6 R 703 – Catalina Sky Survey MPS 175134
2005 01 17.48346 13 57 57.44 +02 17 09.5 20.6 R 703 – Catalina Sky Survey MPS 175134
2005 03 17.42517 14 26 13.72 +08 58 49.9 18.9 R 703 – Catalina Sky Survey MPS 131811
2005 03 17.43375 14 26 13.61 +08 58 55.6 18.1 R 703 – Catalina Sky Survey MPS 131811
2005 03 17.44225 14 26 13.54 +08 59 00.9 18.6 R 703 – Catalina Sky Survey MPS 131811
2005 03 17.45080 14 26 13.46 +08 59 05.9 18.4 R 703 – Catalina Sky Survey MPS 131811
2005 04 02.43185 14 20 36.23 +11 40 50.8 18.3 R 703 – Catalina Sky Survey MPS 130900
2005 04 02.44271 14 20 36.03 +11 40 57.3 18.5 R 703 – Catalina Sky Survey MPS 130900
2005 04 02.45353 14 20 35.59 +11 41 03.2 18.3 R 703 – Catalina Sky Survey MPS 130900
2005 04 02.46439 14 20 35.30 +11 41 08.8 18.4 R 703 – Catalina Sky Survey MPS 130900
2005 04 06.34224 14 18 29.48 +12 17 38.4 18.1 R 703 – Catalina Sky Survey MPS 130900
2005 04 06.35121 14 18 29.12 +12 17 42.7 18.1 R 703 – Catalina Sky Survey MPS 130900
2005 04 06.36019 14 18 28.83 +12 17 48.4 18.2 R 703 – Catalina Sky Survey MPS 130900
2005 04 11.31946 14 15 29.03 +13 01 12.2 18.7   704 – Lincoln Laboratory ETS, New Mexico MPS 131811
2005 04 11.33061 14 15 28.56 +13 01 18.2 18.8   704 – Lincoln Laboratory ETS, New Mexico MPS 131811
2005 04 11.34078 14 15 28.19 +13 01 22.8 18.9   704 – Lincoln Laboratory ETS, New Mexico MPS 131811
2005 04 11.36085 14 15 27.32 +13 01 34.3 19.4   704 – Lincoln Laboratory ETS, New Mexico MPS 131811
2005 04 12.27785 14 14 52.39 +13 09 06.2 18.4 R 699 – Lowell Observatory-LONEOS MPS 131811
2005 04 12.29731 14 14 51.55 +13 09 15.6   699 – Lowell Observatory-LONEOS MPS 131811
2005 04 12.31677 14 14 50.73 +13 09 25.5   699 – Lowell Observatory-LONEOS MPS 131811
2005 04 12.33624 14 14 49.98 +13 09 34.2   699 – Lowell Observatory-LONEOS MPS 131811
2005 04 16.38098 14 12 09.37 +13 40 50.0 18.2 R 703 – Catalina Sky Survey MPS 132663
2005 04 16.38905 14 12 09.11 +13 40 54.7 18.0 R 703 – Catalina Sky Survey MPS 132663
2005 04 16.39708 14 12 08.73 +13 40 57.0 18.3 R 703 – Catalina Sky Survey MPS 132663
2005 04 16.40516 14 12 08.37 +13 41 00.5 18.6 R 703 – Catalina Sky Survey MPS 132663
2005 04 30.30193 14 02 33.87 +14 58 33.5 18.3 R 699 – Lowell Observatory-LONEOS MPS 133367
2005 04 30.31813 14 02 33.13 +14 58 37.7   699 – Lowell Observatory-LONEOS MPS 133367
2005 04 30.33431 14 02 32.57 +14 58 41.6   699 – Lowell Observatory-LONEOS MPS 133367
2005 04 30.35050 14 02 31.81 +14 58 44.4   699 – Lowell Observatory-LONEOS MPS 133367
2005 05 01.88792 14 01 30.22 +15 04 07.3 18.3 R A35 – Hormersdorf Observatory MPS 133367
2005 05 01.89153 14 01 30.07 +15 04 07.6 18.3 R A35 – Hormersdorf Observatory MPS 133367
2005 05 01.89512 14 01 29.92 +15 04 09.1 18.3 R A35 – Hormersdorf Observatory MPS 133367
2005 05 02.34211 14 01 11.95 +15 05 36.5 18.2 R 703 – Catalina Sky Survey MPS 133367
2005 05 02.35015 14 01 11.63 +15 05 38.0 18.3 R 703 – Catalina Sky Survey MPS 133367
2005 05 02.35819 14 01 11.28 +15 05 39.5 18.6 R 703 – Catalina Sky Survey MPS 133367
2005 05 02.36624 14 01 10.95 +15 05 41.2 18.3 R 703 – Catalina Sky Survey MPS 133367
2005 05 11.25226 13 55 42.71 +15 22 33.4 18.9   704 – Lincoln Laboratory ETS, New Mexico MPS 134031
2005 05 11.26424 13 55 42.27 +15 22 34.3 18.6   704 – Lincoln Laboratory ETS, New Mexico MPS 134031
2005 05 11.27940 13 55 41.76 +15 22 35.0 18.9   704 – Lincoln Laboratory ETS, New Mexico MPS 134031
2005 05 11.29153 13 55 41.33 +15 22 34.9 19.4   704 – Lincoln Laboratory ETS, New Mexico MPS 134031
2005 05 11.30173 13 55 41.00 +15 22 35.6 19.8   704 – Lincoln Laboratory ETS, New Mexico MPS 134031
2005 05 13.288037 13 54 35.896 +15 23 16.27 18.85 V 645 – Apache Point-Sloan Digital Sky Survey MPS 390362
2005 05 13.291509 13 54 35.780 +15 23 16.24 19.71   645 – Apache Point-Sloan Digital Sky Survey MPS 390362
2005 05 17.27907 13 52 36.62 +15 21 19.7 18.5 V 703 – Catalina Sky Survey MPS 134904
2005 05 17.28662 13 52 36.40 +15 21 18.9 18.7 V 703 – Catalina Sky Survey MPS 134904
2005 05 17.29425 13 52 36.22 +15 21 19.4 19.1 V 703 – Catalina Sky Survey MPS 134904
2005 05 17.30193 13 52 36.04 +15 21 17.6 18.8 V 703 – Catalina Sky Survey MPS 134904
2006 05 08.43412 20 55 17.97 -07 13 13.1 20.3 V G96 – Mt. Lemmon Survey MPS 175134
2006 05 08.44972 20 55 18.58 -07 13 11.2 20.1 V G96 – Mt. Lemmon Survey MPS 175134
2006 05 08.45762 20 55 18.87 -07 13 10.2 19.8 V G96 – Mt. Lemmon Survey MPS 175134
2006 07 21.73392 20 50 23.24 -10 10 18.9 19.9 R D35 – Lulin Observatory MPS 175134
2006 07 21.75163 20 50 22.49 -10 10 26.7 18.7 R D35 – Lulin Observatory MPS 175134
2006 07 21.76929 20 50 21.72 -10 10 34.4 18.7 R D35 – Lulin Observatory MPS 175134
2006 08 28.24519 20 25 21.65 -15 07 39.7   291 – LPL/Spacewatch II MPS 177062
2006 08 28.26047 20 25 21.18 -15 07 46.7   291 – LPL/Spacewatch II MPS 177062
2006 08 28.27318 20 25 20.81 -15 07 51.7   291 – LPL/Spacewatch II MPS 177062
2006 08 29.20177 20 24 55.28 -15 14 35.0   291 – LPL/Spacewatch II MPS 177062
2006 08 29.21243 20 24 55.05 -15 14 40.2   291 – LPL/Spacewatch II MPS 177062
2006 08 29.22687 20 24 54.64 -15 14 46.5   291 – LPL/Spacewatch II MPS 177062
2006 09 26.11182 20 20 22.52 -17 55 21.1 20.2 V G96 – Mt. Lemmon Survey MPS 181082
2006 09 26.11888 20 20 22.52 -17 55 22.7 20.1 V G96 – Mt. Lemmon Survey MPS 181082
2006 09 26.12599 20 20 22.59 -17 55 24.3 20.6 V G96 – Mt. Lemmon Survey MPS 181082
2006 09 26.13322 20 20 22.63 -17 55 26.2 20.3 V G96 – Mt. Lemmon Survey MPS 181082
2006 10 20.10987 20 29 30.94 -19 02 44.9 20.9 V G96 – Mt. Lemmon Survey MPS 182964
2006 10 20.11557 20 29 31.12 -19 02 45.5 20.8 V G96 – Mt. Lemmon Survey MPS 182964
2006 10 20.12119 20 29 31.30 -19 02 45.8 20.7 V G96 – Mt. Lemmon Survey MPS 182964
2006 10 20.13451 20 29 31.81 -19 02 47.6 20.8 V G96 – Mt. Lemmon Survey MPS 182964
2007 10 19.27128 01 20 34.72 -13 31 19.1 20.2 V 703 – Catalina Sky Survey MPS 222529
2007 10 19.27947 01 20 34.36 -13 31 21.5 19.7 V 703 – Catalina Sky Survey MPS 222529
2007 10 19.28770 01 20 34.08 -13 31 24.5 19.5 V 703 – Catalina Sky Survey MPS 222529
2007 10 19.29589 01 20 33.61 -13 31 25.4 20.4 V 703 – Catalina Sky Survey MPS 222529
2010 01 12.45548 10 12 55.40 +09 33 33.6 19.6 V G96 – Mt. Lemmon Survey MPS 310188
2010 01 12.46260 10 12 55.26 +09 33 36.3 19.8 V G96 – Mt. Lemmon Survey MPS 310188
2010 01 12.46990 10 12 55.15 +09 33 39.2 19.3 V G96 – Mt. Lemmon Survey MPS 310188
2010 01 12.47715 10 12 55.00 +09 33 41.6 19.5 V G96 – Mt. Lemmon Survey MPS 310188
2010 01 13.32254 10 12 40.87 +09 39 05.6 18.8   704 – Lincoln Laboratory ETS, New Mexico MPS 310188
2010 01 13.33460 10 12 40.72 +09 39 10.8 19.6   704 – Lincoln Laboratory ETS, New Mexico MPS 310188
2010 01 13.34670 10 12 40.42 +09 39 15.6 19.4   704 – Lincoln Laboratory ETS, New Mexico MPS 310188
2010 01 13.35876 10 12 40.22 +09 39 19.6 19.8   704 – Lincoln Laboratory ETS, New Mexico MPS 310188
2010 01 18.33470 10 10 57.08 +10 13 31.0 19.4   704 – Lincoln Laboratory ETS, New Mexico MPS 311177
2010 01 18.34721 10 10 56.76 +10 13 35.9 19.7   704 – Lincoln Laboratory ETS, New Mexico MPS 311177
2010 01 18.35974 10 10 56.47 +10 13 42.1 20.0   704 – Lincoln Laboratory ETS, New Mexico MPS 311177
2010 01 18.37228 10 10 56.08 +10 13 47.6 20.3   704 – Lincoln Laboratory ETS, New Mexico MPS 311177
2010 02 09.38913 09 58 13.29 +13 23 58.4 18.7 V 703 – Catalina Sky Survey MPS 313189
